South Bend, IN

6:41 PM EDT on October 16, 2017 (GMT -0400)
South Bend Regional

Weather History for KSBN - April, 2012

Change the Weather History Date:

Sunday, April 1, 2012

  Actual Average Record
Temperature  
Mean Temperature 55 °F 44 °F  
Max Temperature 67 °F 54 °F 82 °F (2010)
Min Temperature 42 °F 34 °F 12 °F (1923)
Degree Days  
Heating Degree Days 10 22  
Month to date heating degree days 10 22  
Since 1 July heating degree days 4510 5566  
Cooling Degree Days 0 0  
Month to date cooling degree days 0 0  
Year to date cooling degree days 44 1  
Growing Degree Days 4 (Base 50)    
Moisture  
Dew Point 46 °F    
Average Humidity 73    
Maximum Humidity 83    
Minimum Humidity 63    
Precipitation  
Precipitation 0.01 in 0.10 in 1.65 in (1929)
Month to date precipitation 0.01 0.10  
Year to date precipitation 6.95 6.76  
Snow  
Snow 0.00 in 0.10 in 4.70 in (1970)
Month to date snowfall 0.0 0.1  
Since 1 July snowfall 51.2 65.3  
Snow Depth 0.00 in    
Sea Level Pressure  
Sea Level Pressure 29.76 in    
Wind  
Wind Speed 7 mph (East)    
Max Wind Speed 14 mph    
Max Gust Speed 20 mph    
Visibility 7 miles    
Events      
T = Trace of Precipitation, MM = Missing Value Source: NWS Daily Summary

Daily Weather History Graph

Daily Weather History Graph

Search for Another Location

Airport or City:

Trip Planner

Search our weather history database for the weather conditions in past years. The results will help you decide how hot, cold, wet, or windy it might be!

Date:

Astronomy

Apr. 01, 2012 Rise Set
Actual Time 7:27 AM EDT 8:11 PM EDT
Civil Twilight 6:59 AM EDT 8:39 PM EDT
Nautical Twilight 6:26 AM EDT 9:12 PM EDT
Astronomical Twilight 5:51 AM EDT 9:47 PM EDT
Moon 2:36 PM EDT (4/1) 4:08 AM EDT (4/1)
Length of Visible Light 13h 40m
Length of Day
12h 43m
Waxing Gibbous, 69% of the Moon is Illuminated
Apr 1
Waxing Gibbous
Apr 6
Full
Apr 13
Last Quarter
Apr 21
New
Apr 29
First Quarter

Hourly Weather History & Observations

Time (EDT) Temp. Windchill Dew Point Humidity Pressure Visibility Wind Dir Wind Speed Gust Speed Precip Events Conditions
12:54 AM 43.0 °F 36.8 °F 36.0 °F 76% 29.88 in 10.0 mi SE 11.5 mph - N/A   Clear
1:54 AM 42.1 °F 36.6 °F 36.0 °F 79% 29.86 in 8.0 mi SE 9.2 mph - N/A   Scattered Clouds
2:54 AM 43.0 °F 37.2 °F 36.0 °F 76% 29.85 in 6.0 mi SSE 10.4 mph - N/A   Haze
3:54 AM 43.0 °F 38.2 °F 37.0 °F 80% 29.84 in 5.0 mi SSE 8.1 mph - N/A   Haze
4:54 AM 43.0 °F 37.2 °F 37.0 °F 80% 29.82 in 5.0 mi South 10.4 mph - N/A   Haze
5:54 AM 44.1 °F 40.1 °F 37.9 °F 79% 29.80 in 4.0 mi SE 6.9 mph - N/A   Haze
6:54 AM 44.1 °F 38.6 °F 39.0 °F 82% 29.78 in 5.0 mi SSE 10.4 mph - N/A   Haze
7:54 AM 44.1 °F 39.5 °F 39.0 °F 82% 29.78 in 3.0 mi SSE 8.1 mph - N/A   Haze
8:54 AM 46.9 °F - 41.0 °F 80% 29.77 in 4.0 mi SSW 6.9 mph - N/A   Haze
9:54 AM 50.0 °F - 44.1 °F 80% 29.76 in 5.0 mi SSW 8.1 mph - N/A   Haze
10:54 AM 54.0 °F - 48.0 °F 80% 29.73 in 5.0 mi South 6.9 mph - 0.01 in   Haze
11:54 AM 57.0 °F - 48.9 °F 74% 29.73 in 7.0 mi SSW 3.5 mph - N/A   Overcast
12:54 PM 61.0 °F - 52.0 °F 72% 29.72 in 8.0 mi Calm Calm - N/A   Partly Cloudy
1:54 PM 64.9 °F - 54.0 °F 68% 29.70 in 10.0 mi North 5.8 mph - N/A   Scattered Clouds
2:54 PM 66.0 °F - 53.1 °F 63% 29.69 in 10.0 mi Variable 3.5 mph - N/A   Overcast
3:07 PM 64.4 °F - 53.6 °F 68% 29.69 in 10.0 mi NNW 5.8 mph - N/A   Overcast
3:54 PM 64.9 °F - 54.0 °F 68% 29.69 in 10.0 mi NNW 6.9 mph - N/A   Overcast
4:54 PM 63.0 °F - 53.1 °F 70% 29.69 in 10.0 mi North 10.4 mph - N/A   Overcast
5:54 PM 64.0 °F - 52.0 °F 65% 29.69 in 10.0 mi North 6.9 mph - N/A   Overcast
6:43 PM 62.6 °F - 51.8 °F 68% 29.71 in 8.0 mi North 9.2 mph - N/A   Overcast
6:54 PM 62.1 °F - 52.0 °F 70% 29.72 in 9.0 mi North 9.2 mph - N/A   Overcast
7:54 PM 60.1 °F - 48.9 °F 67% 29.74 in 7.0 mi NNE 9.2 mph - N/A   Overcast
8:22 PM 59.0 °F - 48.2 °F 67% 29.74 in 7.0 mi NNE 5.8 mph - N/A   Overcast
8:54 PM 59.0 °F - 48.9 °F 69% 29.75 in 8.0 mi NE 3.5 mph - N/A   Overcast
9:54 PM 55.9 °F - 46.9 °F 72% 29.76 in 7.0 mi NE 4.6 mph - N/A   Partly Cloudy
10:54 PM 54.0 °F - 46.0 °F 75% 29.78 in 6.0 mi NE 5.8 mph - N/A   Haze
11:54 PM 52.0 °F - 45.0 °F 77% 29.79 in 5.0 mi NE 9.2 mph - N/A   Haze